SCP
1 1 1 0 0 0 0 0 0 0 0 0 0 0 0 0 0 0 0 0 0 0 0 0 0 0 0 0 0 0 0 0 0 0 0 0 0 0 0 0 0 0 0
0 0 0 0 0 0 0 0 0 0 0 0 0 0 0 0 0 0 0 0 0 0 0 0 0 0 0 0 0 0 0 0 0 0 0 0 0 0 0 0 0 0 0
0 0 0 0 0 0 0 0 0 0 0 0 0 0 0 0 0 0 0 0 0 0 0 0 0 0 0 0 1 0 0 0 0 0 0 0 0 0 0 0 0 0 0
0 0 0 0 0 0 0 0 0 0 0 0 0 0 0 0 0 0 0 0 0 0 0 0 0 0 0 0 1 0 0 0 0 0 0 0 0 0 0 0 0 0 0
0 0 0 0 0 0 0 0 0 0 0 0 0 0 0 0 0 0 0 0 0 0 0 0 0 0 0 0 0 0 0 0 0 0 0 0 0 0 0 0 0 0 0
0 0 0 0 0 0 0 0 0 0 0 0 0 0 0 0 0 0 0 0 0 0 0 0 0 0 0 0 0 0 0 0 0 0 0 0 0 0 0 0 0 0 0
0 0 0 0 0 0 0 0 0 0 0 0 0 0 0 0 0 0 0 0 0 0 0 0 0 0 0 0 0 0 0 0 0 0 0 0 0 0 0 0 0 0 0
0 0 0 0 0 0 0 0 0 0 0 0 0 0 0 0 0 0 0 0 0 0 0 0 0 0 0 0 0 0 0 0 0 0 0 0 0 0 0 0 0 0 0
0 0 0 0 0 0 0 0 0 0 0 0 0 0 0 0 0 0 0 0 0 0 0 0 0 0 0 0 0 0 0 0 0 0 0 0 0 0 0 0 0 0 0
0 0 0 0 0 0 0 0 0 0 0 0 0 0 0 0 0 0 0 0 0 0 0 0 0 0 0 0 0 0 0 0 0 0 0 0 0 0 0 0 0 0 0
0 0 0 0 0 0 0 0 0 0 0 0 0 0 0 0 0 0 0 0 0 0 0 0 0 0 0 0 0 0 0 0 0 0 0 0 0 0 0 0 0 0 0
0 0 0 0 0 0 0 0 0 0 0 0 0 0 0 0 0 0 0 0 0 0 0 0 0 0 0 0 0 0 0 0 0 0 0 0 0 0 0 0 0 0 0
0 0 0 0 0 0 0 0 0 0 0 0 0 0 0 0 0 0 0 0 0 0 0 0 0 0 0 0 0 0 0 0 0 0 0 0 0 0 0 0 0 0 0
0 0 0 0 0 0 0 0 0 0 0 0 0 0 0 0 0 0 0 0 0 0 0 0 0 0 0 0 0 0 0 0 0 0 0 0 0 0 0 0 0 0 0
0 0 0 0 0 0 0 0 0 0 0 0 0 0 0 0 0 0 0 0 0 0 0 0 0 0 0 0 0 0 0 0 0 0 0 0 0 0 0 0 0 0 0
0 0 0 0 0 0 0 0 0 0 0 0 0 0 0 0 0 0 0 0 0 0 0 0 0 0 0 0 0 0 0 0 0 0 0 0 0 0 0 0 0 0 0
0 0 0 0 0 0 0 0 0 0 0 0 0 0 0 0 0 0 0 0 0 0 0 0 0 0 0 0 0 0 0 0 0 0 0 0 0 0 0 0 0 0 0
0 0 0 0 0 0 0 0 0 0 0 0 0 0 0 0 0 0 0 0 0 0 0 0 0 0 0 0 0 0 0 0 0 0 0 0 0 0 0 0 0 0 0
0 0 0 0 0 0 0 0 0 0 0 0 0 0 0 0 0 0 0 0 0 0 0 0 0 0 0 0 0 0 0 0 0 0 0 0 0 0 0 0 0 0 0
0 0 0 0 0 0 0 0 0 0 0 0 0 0 0 0 0 0 0 0 0 0 0 0 0 0 0 0 0 0 0 0 0 0 0 0 0 0 0 0 0 0 0
0 0 0 0 0 0 0 0 0 0 0 0 0 0 0 0 0 0 0 0 0 0 0 0 0 0 0 0 0 0 0 0 0 0 0 0 0 0 0 0 0 0 0
0 0 0 0 0 0 0 0 0 0 0 0 0 0 0 0 0 0 0 0 0 0 0 0 0 0 0 0 0 0 0 0 0 0 0 0 0 0 0 0 0 0 0
0 0 0 0 0 0 0 0 0 0 0 0 0 0 0 0 0 0 0 0 0 0 0 0 0 0 0 0 0 0 0 0 0 0 0 0 0 0 0 0 0 0 0
0 0 0 0 0 0 0 0 0 0 0 0 0 0 0 0 0 0 0 0 0 0 0 0 0 0 0 0 0 0 0 0 0 0 0 0 0 0 0 0 0 0 0
0 0 0 0 0 0 0 0 0 0 0 0 0 0 0 0 0 0 0 0 0 0 0 0 0 0 0 0 0 0 0 0 0 0 0 0 0 0 0 0 0 0 0
0 0 0 0 0 0 0 0 0 0 0 0 0 0 0 0 0 0 0 0 0 0 0 0 0 0 0 0 0 0 0 0 0 0 0 0 0 0 0 0 0 0 0
Wind_Speed
1 1 0 1 1 1 1 1 1 2 2 2 1 1 1 1 1 1 2 2 2 3 2 2 3 3 2 2 2 2 2 2 4 4 2 2 3 3 4 3 3 3 3
1 0 0 0 0 0 0 1 1 1 2 1 1 1 2 2 2 2 2 2 2 3 3 2 3 2 3 3 2 2 2 2 3 4 3 2 3 3 3 4 3 3 3
1 1 0 0 0 0 1 1 1 1 1 1 1 1 1 2 2 2 2 2 2 2 3 3 3 2 3 3 3 2 2 2 2 3 4 2 2 3 3 3 3 3 3
1 1 0 1 1 1 1 0 0 1 1 1 1 1 1 2 1 2 2 2 2 2 2 3 3 3 3 3 3 3 2 2 2 2 3 3 2 3 2 3 4 3 3
1 0 1 1 0 0 0 0 1 1 1 1 1 1 1 1 1 1 1 1 2 2 2 3 3 4 5 4 3 3 2 2 2 2 3 3 3 2 2 2 4 4 3
1 1 0 0 0 0 0 0 1 1 1 1 1 1 1 2 3 3 2 1 1 2 3 3 4 4 5 6 6 6 4 3 3 2 3 3 4 3 3 3 3 4 4
1 1 0 0 0 0 0 1 1 1 1 1 1 1 1 2 4 4 4 2 1 2 2 3 3 3 4 3 4 5 5 6 5 4 4 5 5 4 4 4 4 4 5
1 1 1 1 1 0 0 0 0 0 0 1 1 1 1 3 4 4 4 2 1 2 3 3 3 3 3 3 2 2 3 4 4 3 4 5 5 4 4 4 4 4 4
1 1 2 1 1 1 1 1 1 0 1 1 1 1 1 3 5 5 4 1 1 3 3 3 3 3 6 6 3 3 3 4 5 5 6 5 6 6 5 2 2 3 4
2 2 2 2 2 2 2 1 1 1 1 1 1 1 1 2 4 5 5 1 2 2 3 3 5 5 6 6 3 2 3 4 3 3 4 4 4 4 5 2 2 3 3
2 1 1 1 2 2 1 1 1 1 1 1 2 2 2 3 4 5 5 2 2 2 3 3 3 7 7 6 5 3 4 4 2 2 2 3 3 2 2 2 2 3 3
1 1 1 1 2 1 1 1 1 1 1 1 2 3 2 3 3 4 6 5 4 2 3 3 4 7 7 7 5 5 6 5 2 2 2 2 3 3 3 3 3 2 3
1 1 1 1 1 1 2 2 1 1 1 2 2 2 3 2 3 5 6 6 6 3 3 5 6 7 6 4 5 6 5 2 1 2 2 3 3 3 3 3 3 3 3
1 2 1 1 1 1 1 2 2 2 2 2 2 2 3 3 3 3 3 3 4 4 3 4 5 5 4 4 4 4 2 2 2 2 2 3 3 2 2 3 3 3 3
2 2 2 2 2 2 2 2 3 3 3 3 3 3 3 3 5 6 4 3 2 3 2 2 2 2 2 2 2 2 2 2 2 2 2 3 3 3 3 3 3 3 3
2 2 2 2 2 2 1 2 3 4 5 5 5 5 4 6 8 8 8 7 6 5 2 1 2 2 2 2 2 3 2 2 2 2 2 3 3 3 3 3 3 3 3
3 3 2 2 2 2 2 2 2 3 4 4 5 6 6 6 7 7 6 6 5 4 2 2 2 2 3 3 3 3 3 3 3 2 3 3 3 3 3 3 3 3 3
3 4 3 2 2 2 2 2 2 2 2 3 4 5 6 6 6 6 5 4 2 2 1 2 3 3 3 3 3 3 3 3 3 3 3 3 3 3 3 3 3 3 4
3 2 2 2 2 2 2 2 2 2 2 3 2 3 5 5 5 5 4 2 2 2 2 2 3 3 3 3 4 4 4 3 3 3 3 4 3 3 3 3 3 5 4
3 4 3 2 2 2 2 2 2 2 2 2 3 3 3 3 2 3 2 2 2 3 3 3 3 3 4 4 4 4 4 4 4 4 4 4 4 3 4 4 4 4 4
2 2 3 2 2 2 2 2 2 2 2 3 3 4 4 2 3 3 3 2 3 3 3 3 4 4 4 4 3 4 5 4 4 4 4 4 3 3 3 3 4 4 4
2 2 2 2 2 2 2 2 2 2 3 3 3 3 5 3 3 3 3 3 3 3 3 3 4 4 4 4 4 4 5 5 5 4 4 4 3 3 3 3 3 3 3
1 1 1 2 2 3 2 2 2 2 3 3 3 3 3 3 3 3 3 3 3 3 3 3 4 4 4 4 4 4 5 5 5 5 4 4 3 3 3 4 4 4 4
1 2 2 1 1 2 2 2 2 2 3 3 3 3 3 3 3 4 4 3 3 3 3 3 4 5 6 5 4 4 5 5 5 4 5 4 4 4 3 4 4 4 4
1 1 2 2 2 2 2 2 2 2 3 3 3 3 3 3 3 4 3 3 4 4 5 4 4 5 6 7 6 6 7 9 7 5 4 3 4 4 4 4 4 4 4
1 2 2 2 2 2 2 2 2 2 3 3 3 3 3 3 3 4 4 3 4 4 4 4 5 6 7 6 7 8 9 9 8 7 4 3 3 4 4 3 4 3 3
Wind_Direction
142 171 168 219 214 196 201 234 247 265 269 271 293 297 303 307 304 306 306 308 311 309 306 291 289 296 297 299 287 274 252 235 260 279 282 290 293 300 310 304 297 293 297
175 182 229 265 271 233 247 278 289 287 281 278 290 306 315 313 305 298 302 308 300 305 303 298 294 300 299 297 285 278 275 252 243 273 287 286 284 288 291 298 308 312 302
164 164 82 342 283 257 264 290 313 314 321 324 319 297 300 309 315 308 297 303 302 301 304 304 296 295 297 299 296 279 275 281 258 260 279 283 286 296 302 309 311 309 312
136 149 178 252 245 244 255 266 302 318 327 327 323 316 308 313 317 315 314 310 308 316 320 315 306 296 288 289 293 286 283 285 281 270 281 288 288 297 306 315 315 316 310
151 173 225 247 248 234 285 308 331 332 330 341 350 341 331 319 310 316 312 322 322 324 324 316 322 312 309 303 296 295 289 280 285 283 285 295 301 306 302 299 296 307 304
174 227 265 203 119 73 321 353 6 354 355 14 358 335 331 326 330 324 323 328 325 325 323 321 322 323 315 312 314 318 311 295 290 282 289 287 290 290 293 289 293 302 300
196 216 224 197 175 236 321 20 354 359 12 10 355 346 325 312 318 323 327 328 316 307 304 309 314 322 330 322 322 322 319 310 294 275 270 269 273 275 281 290 287 284 281
212 222 219 196 188 206 171 276 308 341 359 337 329 324 322 319 324 320 321 323 307 295 295 299 306 314 313 308 303 309 306 304 296 285 262 265 267 268 262 270 275 289 287
221 228 232 211 206 218 224 244 267 293 304 299 305 307 307 307 317 315 315 298 298 300 304 309 305 298 305 313 311 301 309 309 314 312 302 304 311 311 302 293 292 296 298
241 236 231 222 216 221 223 232 246 255 270 291 305 294 279 285 303 310 313 287 295 297 299 300 302 303 304 309 302 297 302 305 309 319 326 325 320 321 321 293 275 277 291
261 247 233 231 228 222 214 218 217 240 270 286 294 299 288 285 300 307 309 292 275 286 290 292 293 304 307 310 312 294 291 301 298 300 309 318 324 321 319 306 281 259 268
251 254 250 247 242 231 201 217 218 213 231 265 287 301 296 291 303 305 307 304 303 285 281 283 288 304 308 311 313 313 314 318 310 311 313 317 318 315 311 309 304 289 271
242 257 260 267 255 235 211 214 222 220 226 257 264 282 296 299 297 305 304 303 301 295 281 288 297 306 311 312 319 322 326 322 301 296 296 296 293 291 299 306 308 298 291
239 255 254 244 250 245 238 225 220 225 232 246 254 268 285 295 293 291 284 286 289 292 293 296 306 309 312 312 314 318 314 294 285 275 282 289 294 299 303 306 308 311 308
242 247 248 246 244 244 250 236 238 237 235 240 240 242 261 275 281 290 295 285 276 275 290 303 312 317 319 316 315 310 300 298 297 289 291 296 299 303 302 304 300 304 295
239 240 232 238 241 236 247 283 275 265 273 273 270 270 270 275 287 291 292 291 291 293 294 286 291 291 290 295 298 301 296 286 283 283 284 282 284 289 296 300 296 293 291
229 236 230 233 233 234 239 250 286 304 295 289 289 290 291 293 293 295 295 293 294 302 297 281 276 277 280 282 284 285 285 285 280 278 277 276 278 281 284 289 293 292 290
231 235 232 227 230 234 237 243 250 271 295 299 301 299 299 299 302 306 305 305 304 303 283 276 274 276 279 280 279 280 281 284 281 275 273 272 270 271 275 281 283 281 283
231 229 227 224 227 229 233 237 244 257 271 286 298 303 304 306 307 309 313 303 289 287 280 274 272 275 277 277 276 275 272 271 272 271 269 268 266 267 270 273 275 282 280
234 237 236 226 226 230 229 231 240 252 265 273 281 289 302 308 300 306 304 283 280 280 276 273 272 272 273 271 271 272 271 268 266 264 264 263 261 261 264 268 271 273 272
230 233 240 238 225 227 228 234 238 242 253 265 275 284 290 284 277 282 283 278 272 271 272 271 270 271 269 269 268 268 269 268 264 262 262 262 261 263 264 265 268 267 270
218 223 224 229 232 231 234 234 240 246 252 259 273 283 288 287 279 281 280 281 279 273 269 269 270 269 266 265 266 267 267 268 267 263 263 260 256 257 259 261 265 268 267
211 222 237 242 237 246 254 244 245 249 257 261 267 274 279 277 275 277 280 282 283 282 280 273 272 274 274 271 267 264 264 267 266 262 261 260 258 257 257 259 261 265 266
213 224 233 242 243 242 244 249 250 254 259 264 268 273 275 276 279 280 281 283 283 283 281 277 273 274 278 280 276 272 267 269 269 260 252 252 257 259 258 259 259 258 264
217 229 233 236 240 243 246 253 257 261 266 270 273 276 279 280 281 283 283 283 284 283 283 282 277 278 279 279 280 279 281 281 277 270 253 247 251 252 252 253 255 257 261
227 233 240 241 244 245 245 252 258 262 267 272 275 277 279 280 282 285 286 285 286 286 285 283 281 284 285 282 280 283 286 286 282 277 260 244 246 249 249 251 252 253 255